STARLINK-33733, 63435

Orbit data source: Space-Track

STARLINK-33733, 63435 is a payload satellite owned by SpaceX/Seattle (US) in LEO that was launched on Fri, 04 Apr 2025 UTC via an FALCON 9 launch vehicle from the Air Force Western Test Range (AFWTR). Payload-class satellites include a variety of spacecraft equipped with specific instruments for various scientific and technological missions. These include communications satellites like Starlink; space stations such as the ISS; scientific satellites like the Hubble; Earth observation satellites from companies like Planet Labs, Umbra, and HawkEye 360; GPS; miniature CubeSats for education and research; and military/defense satellites.

Loading next visibility...
Identifier
63435, 2025-069C
Orbit
LEO
Country
Flag of USUS
Related business
Manufacturer
SpaceX/Seattle
Mission
Operational Commercial Communications
Bus & Motor
STARLINK V2MO, Unknown motor
Mass
575 kg wet, ~530 kg dry
Launch date (UTC)
2025-04-04 (1 year ago)
Launch vehicle
FALCON 9
Launch site
Air Force Western Test Range (AFWTR)
Object type
Payload
Rocket body
Debris
Shape & HBR
Box + 2 Pan, 17.7 m
Radar Cross Section
36.964 m², Large (>1 m²)

Expand to show TLE details & history
Last TLE update: 8 hours ago

TLE from 8 hours ago
0 STARLINK-33733
1 63435U 25069C   26145.39774037 -.00043793  00000-0 -10002-2 0  9994
2 63435  53.1581 143.7237 0001617 140.6433 219.4691 15.42231573 65184
Epoch: 2026-05-25T09:32Z
TLE epoch observation values (Epoch: 2026-05-25T09:32:44.767Z)
Latitude
-0.00002°
Longitude
117.55104°
Altitude
441.28 km
Speed
7.648 km/s
True Right ascension
09h 34m 53s
True Declination
0° 00' 00"
Sunlit
Object was in daylight at epoch
Visualization orbit readout
Latitude
Unknown
Longitude
Unknown
Altitude
Unknown
Speed
Unknown
Apparent Right ascension
Unknown
Apparent Declination
Unknown
Sunlit
N/A
Visualization observer readout
Local Sidereal Time
03:05:59
Azimuth
Unknown
Elevation
Unknown
Doppler factor
Unknown
Orbital elements
Apogee altitude
440.885 km
Perigee altitude
438.68 km
Semi-major axis
6,817.92 km
Eccentricity
0.00016
Inclination
53.1581°
RAAN
143.7237°
Arg. of periapsis
140.6433°
True anomaly
219.45732°
Mean anomaly
219.4691°
Eccentric anomaly
219.46321°
Mean motion
3.85536 °/min
Orbital period
93.38 mins
BSTAR
-0.0010002
Loading maneuver chart data...
Computing Atmospheric mass density...
Loading historical data...
Loading historical data...
Loading historical data...
Loading historical data...
Loading historical data...
Loading historical data...
Loading historical data...

Documentation

Showing up to 5 results
|